Time,TemperatureF,DewpointF,PressureIn,WindDirection,WindDirectionDegrees,WindSpeedMPH,WindSpeedGustMPH,Humidity,HourlyPrecipIn,Conditions,Clouds,dailyrainin,SoftwareType,DateUTC
2013-03-01 00:01:00,33.0,17.0,-100.00,NNW,335,4.0,6.0,50,0.00,,,-99.99,,2013-03-01 07:01:00,
2013-03-01 00:11:00,33.0,17.0,-100.00,NNW,345,4.0,6.0,51,0.00,,,-99.99,,2013-03-01 07:11:00,
2013-03-01 00:21:00,33.0,17.0,-100.00,NNW,330,6.0,6.0,51,0.00,,,-99.99,,2013-03-01 07:21:00,
2013-03-01 00:31:00,32.0,17.0,-100.00,North,0,4.0,7.0,51,0.00,,,-99.99,,2013-03-01 07:31:00,
2013-03-01 00:42:00,32.0,17.0,-100.00,NNW,345,3.0,4.0,52,0.00,,,-99.99,,2013-03-01 07:42:00,
2013-03-01 00:51:00,32.0,17.0,-100.00,NNW,340,6.0,6.0,53,0.00,,,-99.99,,2013-03-01 07:51:00,
2013-03-01 01:01:00,32.0,17.0,-100.00,NNW,340,6.0,7.0,53,0.00,,,-99.99,,2013-03-01 08:01:00,
2013-03-01 01:11:00,32.0,17.0,-100.00,NNW,335,4.0,6.0,53,0.00,,,-99.99,,2013-03-01 08:11:00,
2013-03-01 01:21:00,32.0,17.0,-100.00,North,0,3.0,6.0,53,0.00,,,-99.99,,2013-03-01 08:21:00,
2013-03-01 01:31:00,32.0,18.0,-100.00,NNW,330,5.0,7.0,54,0.00,,,-99.99,,2013-03-01 08:31:00,
2013-03-01 01:42:00,32.0,18.0,-100.00,NW,325,4.0,6.0,54,0.00,,,-99.99,,2013-03-01 08:42:00,
2013-03-01 01:52:00,32.0,18.0,-100.00,NW,325,4.0,6.0,54,0.00,,,-99.99,,2013-03-01 08:52:00,
2013-03-01 02:01:00,32.0,17.0,-100.00,NNW,340,4.0,7.0,54,0.00,,,-99.99,,2013-03-01 09:01:00,
2013-03-01 02:11:00,33.0,18.0,-100.00,NNW,335,5.0,6.0,54,0.00,,,-99.99,,2013-03-01 09:11:00,
2013-03-01 02:21:00,32.0,18.0,-100.00,North,0,0.0,6.0,54,0.00,,,-99.99,,2013-03-01 09:21:00,
2013-03-01 02:31:00,32.0,18.0,-100.00,NNW,345,1.0,4.0,54,0.00,,,-99.99,,2013-03-01 09:31:00,
2013-03-01 02:42:00,32.0,18.0,-100.00,NW,320,2.0,4.0,54,0.00,,,-99.99,,2013-03-01 09:42:00,
2013-03-01 02:51:00,32.0,18.0,-100.00,North,0,3.0,4.0,55,0.00,,,-99.99,,2013-03-01 09:51:00,
2013-03-01 03:01:00,31.0,17.0,-100.00,NNW,340,4.0,4.0,55,0.00,,,-99.99,,2013-03-01 10:01:00,
2013-03-01 03:11:00,31.0,17.0,-100.00,North,350,1.0,5.0,55,0.00,,,-99.99,,2013-03-01 10:11:00,
2013-03-01 03:21:00,31.0,18.0,-100.00,NNW,340,3.0,4.0,55,0.00,,,-99.99,,2013-03-01 10:21:00,
2013-03-01 03:31:00,31.0,18.0,-100.00,North,350,2.0,4.0,55,0.00,,,-99.99,,2013-03-01 10:31:00,
2013-03-01 03:41:00,32.0,18.0,-100.00,NNW,330,3.0,4.0,56,0.00,,,-99.99,,2013-03-01 10:41:00,
2013-03-01 03:51:00,32.0,18.0,-100.00,NW,310,4.0,4.0,56,0.00,,,-99.99,,2013-03-01 10:51:00,
2013-03-01 04:01:00,32.0,18.0,-100.00,North,350,2.0,4.0,56,0.00,,,-99.99,,2013-03-01 11:01:00,
2013-03-01 04:11:00,32.0,19.0,-100.00,North,355,1.0,3.0,56,0.00,,,-99.99,,2013-03-01 11:11:00,
2013-03-01 04:22:00,32.0,19.0,-100.00,North,355,1.0,4.0,56,0.00,,,-99.99,,2013-03-01 11:22:00,
2013-03-01 04:31:00,32.0,19.0,-100.00,NNW,335,2.0,3.0,56,0.00,,,-99.99,,2013-03-01 11:31:00,
2013-03-01 04:41:00,32.0,19.0,-100.00,NNW,340,4.0,4.0,57,0.00,,,-99.99,,2013-03-01 11:41:00,
2013-03-01 04:52:00,33.0,19.0,-100.00,NW,320,4.0,4.0,56,0.00,,,-99.99,,2013-03-01 11:52:00,
2013-03-01 05:01:00,33.0,19.0,-100.00,NW,325,4.0,6.0,57,0.00,,,-99.99,,2013-03-01 12:01:00,
2013-03-01 05:11:00,33.0,19.0,-100.00,NNW,340,4.0,5.0,57,0.00,,,-99.99,,2013-03-01 12:11:00,
2013-03-01 05:21:00,33.0,19.0,-100.00,North,0,1.0,4.0,57,0.00,,,-99.99,,2013-03-01 12:21:00,
2013-03-01 05:32:00,33.0,20.0,-100.00,NNW,345,4.0,7.0,58,0.00,,,-99.99,,2013-03-01 12:32:00,
2013-03-01 05:42:00,33.0,20.0,-100.00,North,355,4.0,6.0,58,0.00,,,-99.99,,2013-03-01 12:42:00,
2013-03-01 05:52:00,33.0,20.0,-100.00,NW,325,2.0,4.0,58,0.00,,,-99.99,,2013-03-01 12:52:00,
2013-03-01 06:01:00,33.0,20.0,-100.00,NW,320,4.0,6.0,58,0.00,,,-99.99,,2013-03-01 13:01:00,
2013-03-01 06:11:00,33.0,20.0,-100.00,NNW,340,4.0,7.0,58,0.00,,,-99.99,,2013-03-01 13:11:00,
2013-03-01 06:21:00,33.0,20.0,-100.00,NNW,345,1.0,5.0,58,0.00,,,-99.99,,2013-03-01 13:21:00,
2013-03-01 06:32:00,34.0,20.0,-100.00,NNW,335,4.0,6.0,58,0.00,,,-99.99,,2013-03-01 13:32:00,
2013-03-01 06:41:00,34.0,21.0,-100.00,NNE,30,0.0,6.0,58,0.00,,,-99.99,,2013-03-01 13:41:00,
2013-03-01 06:51:00,34.0,21.0,-100.00,North,355,3.0,6.0,58,0.00,,,-99.99,,2013-03-01 13:51:00,
2013-03-01 07:01:00,34.0,21.0,-100.00,NW,325,3.0,4.0,58,0.00,,,-99.99,,2013-03-01 14:01:00,
2013-03-01 07:11:00,34.0,21.0,-100.00,NNW,335,2.0,4.0,58,0.00,,,-99.99,,2013-03-01 14:11:00,
2013-03-01 07:21:00,34.0,21.0,-100.00,NW,320,4.0,6.0,58,0.00,,,-99.99,,2013-03-01 14:21:00,
2013-03-01 07:32:00,34.0,21.0,-100.00,North,350,2.0,6.0,58,0.00,,,-99.99,,2013-03-01 14:32:00,
2013-03-01 07:41:00,34.0,21.0,-100.00,North,0,2.0,6.0,58,0.00,,,-99.99,,2013-03-01 14:41:00,
2013-03-01 07:52:00,34.0,21.0,-100.00,NNW,330,3.0,4.0,58,0.00,,,-99.99,,2013-03-01 14:52:00,
2013-03-01 08:01:00,34.0,21.0,-100.00,NW,320,4.0,6.0,58,0.00,,,-99.99,,2013-03-01 15:01:00,
2013-03-01 08:11:00,34.0,21.0,-100.00,NW,325,2.0,6.0,58,0.00,,,-99.99,,2013-03-01 15:11:00,
2013-03-01 08:21:00,34.0,22.0,-100.00,NNW,335,0.0,4.0,58,0.00,,,-99.99,,2013-03-01 15:21:00,
2013-03-01 08:31:00,35.0,22.0,-100.00,NW,325,2.0,4.0,58,0.00,,,-99.99,,2013-03-01 15:31:00,
2013-03-01 08:42:00,35.0,22.0,-100.00,NNW,335,4.0,4.0,59,0.00,,,-99.99,,2013-03-01 15:42:00,
2013-03-01 08:51:00,35.0,22.0,-100.00,NW,325,2.0,4.0,59,0.00,,,-99.99,,2013-03-01 15:51:00,
2013-03-01 09:01:00,35.0,23.0,-100.00,NW,315,6.0,6.0,59,0.00,,,-99.99,,2013-03-01 16:01:00,
2013-03-01 09:11:00,36.0,23.0,-100.00,NW,325,5.0,7.0,58,0.00,,,-99.99,,2013-03-01 16:11:00,
2013-03-01 09:21:00,36.0,23.0,-100.00,NW,315,4.0,6.0,58,0.00,,,-99.99,,2013-03-01 16:21:00,
2013-03-01 09:31:00,37.0,23.0,-100.00,NNE,15,3.0,6.0,58,0.00,,,-99.99,,2013-03-01 16:31:00,
2013-03-01 09:41:00,37.0,24.0,-100.00,NNW,335,4.0,7.0,57,0.00,,,-99.99,,2013-03-01 16:41:00,
2013-03-01 09:51:00,38.0,24.0,-100.00,NNW,335,3.0,6.0,57,0.00,,,-99.99,,2013-03-01 16:51:00,
2013-03-01 10:01:00,38.0,24.0,-100.00,NW,310,5.0,8.0,56,0.00,,,-99.99,,2013-03-01 17:01:00,
2013-03-01 10:11:00,39.0,24.0,-100.00,NNW,330,6.0,9.0,55,0.00,,,-99.99,,2013-03-01 17:11:00,
2013-03-01 10:21:00,39.0,24.0,-100.00,NW,325,4.0,7.0,54,0.00,,,-99.99,,2013-03-01 17:21:00,
2013-03-01 10:31:00,40.0,25.0,-100.00,NW,320,1.0,6.0,54,0.00,,,-99.99,,2013-03-01 17:31:00,
2013-03-01 10:41:00,40.0,25.0,-100.00,NE,35,2.0,5.0,53,0.00,,,-99.99,,2013-03-01 17:41:00,
2013-03-01 10:52:00,40.0,25.0,-100.00,North,5,3.0,5.0,53,0.00,,,-99.99,,2013-03-01 17:52:00,
2013-03-01 11:01:00,40.0,25.0,-100.00,NNE,25,2.0,6.0,53,0.00,,,-99.99,,2013-03-01 18:01:00,
2013-03-01 11:11:00,41.0,25.0,-100.00,NNW,345,3.0,6.0,53,0.00,,,-99.99,,2013-03-01 18:11:00,
2013-03-01 11:21:00,40.0,25.0,-100.00,NW,325,4.0,7.0,53,0.00,,,-99.99,,2013-03-01 18:21:00,
2013-03-01 11:31:00,41.0,25.0,-100.00,North,0,3.0,6.0,53,0.00,,,-99.99,,2013-03-01 18:31:00,
2013-03-01 11:41:00,41.0,25.0,-100.00,North,355,4.0,7.0,53,0.00,,,-99.99,,2013-03-01 18:41:00,
2013-03-01 11:52:00,41.0,26.0,-100.00,NNW,345,4.0,6.0,53,0.00,,,-99.99,,2013-03-01 18:52:00,
2013-03-01 12:01:00,41.0,25.0,-100.00,NNW,330,4.0,7.0,52,0.00,,,-99.99,,2013-03-01 19:01:00,
2013-03-01 12:11:00,42.0,26.0,-100.00,North,0,3.0,6.0,52,0.00,,,-99.99,,2013-03-01 19:11:00,
2013-03-01 12:21:00,43.0,26.0,-100.00,ENE,60,3.0,5.0,51,0.00,,,-99.99,,2013-03-01 19:21:00,
2013-03-01 12:31:00,43.0,26.0,-100.00,NW,305,2.0,6.0,49,0.00,,,-99.99,,2013-03-01 19:31:00,
2013-03-01 12:41:00,44.0,26.0,-100.00,NNE,15,1.0,4.0,47,0.00,,,-99.99,,2013-03-01 19:41:00,
2013-03-01 12:51:00,45.0,26.0,-100.00,East,85,0.0,4.0,46,0.00,,,-99.99,,2013-03-01 19:51:00,
2013-03-01 13:01:00,46.0,25.0,-100.00,WNW,290,1.0,4.0,44,0.00,,,-99.99,,2013-03-01 20:01:00,
2013-03-01 13:11:00,47.0,25.0,-100.00,SSW,200,1.0,5.0,42,0.00,,,-99.99,,2013-03-01 20:11:00,
2013-03-01 13:21:00,46.0,24.0,-100.00,NW,320,4.0,6.0,42,0.00,,,-99.99,,2013-03-01 20:21:00,
2013-03-01 13:31:00,47.0,25.0,-100.00,West,260,1.0,4.0,42,0.00,,,-99.99,,2013-03-01 20:31:00,
2013-03-01 13:41:00,47.0,24.0,-100.00,WNW,285,2.0,6.0,41,0.00,,,-99.99,,2013-03-01 20:41:00,
2013-03-01 13:51:00,47.0,24.0,-100.00,WSW,250,2.0,6.0,40,0.00,,,-99.99,,2013-03-01 20:51:00,
2013-03-01 14:01:00,49.0,25.0,-100.00,NW,315,3.0,4.0,39,0.00,,,-99.99,,2013-03-01 21:01:00,
2013-03-01 14:11:00,51.0,26.0,-100.00,West,260,1.0,4.0,37,0.00,,,-99.99,,2013-03-01 21:11:00,
2013-03-01 14:21:00,51.0,25.0,-100.00,WSW,240,2.0,5.0,37,0.00,,,-99.99,,2013-03-01 21:21:00,
2013-03-01 14:31:00,51.0,26.0,-100.00,SW,235,2.0,4.0,36,0.00,,,-99.99,,2013-03-01 21:31:00,
2013-03-01 14:41:00,51.0,26.0,-100.00,WSW,245,0.0,3.0,36,0.00,,,-99.99,,2013-03-01 21:41:00,
2013-03-01 14:51:00,50.0,25.0,-100.00,SSW,195,5.0,8.0,36,0.00,,,-99.99,,2013-03-01 21:51:00,
2013-03-01 15:01:00,50.0,25.0,-100.00,South,190,3.0,9.0,37,0.00,,,-99.99,,2013-03-01 22:01:00,
2013-03-01 15:11:00,49.0,25.0,-100.00,South,180,9.0,12.0,37,0.00,,,-99.99,,2013-03-01 22:11:00,
2013-03-01 15:21:00,50.0,25.0,-100.00,South,185,4.0,9.0,37,0.00,,,-99.99,,2013-03-01 22:21:00,
2013-03-01 15:31:00,50.0,25.0,-100.00,WNW,285,1.0,6.0,37,0.00,,,-99.99,,2013-03-01 22:31:00,
2013-03-01 15:41:00,51.0,26.0,-100.00,South,180,3.0,6.0,37,0.00,,,-99.99,,2013-03-01 22:41:00,
2013-03-01 15:51:00,51.0,25.0,-100.00,SSE,160,4.0,6.0,36,0.00,,,-99.99,,2013-03-01 22:51:00,
2013-03-01 16:01:00,51.0,26.0,-100.00,West,270,2.0,4.0,37,0.00,,,-99.99,,2013-03-01 23:01:00,
2013-03-01 16:11:00,51.0,26.0,-100.00,West,265,2.0,6.0,37,0.00,,,-99.99,,2013-03-01 23:11:00,
2013-03-01 16:21:00,51.0,26.0,-100.00,WNW,295,6.0,6.0,37,0.00,,,-99.99,,2013-03-01 23:21:00,
2013-03-01 16:31:00,51.0,26.0,-100.00,NW,325,4.0,8.0,38,0.00,,,-99.99,,2013-03-01 23:31:00,
2013-03-01 16:41:00,51.0,26.0,-100.00,NW,320,6.0,7.0,38,0.00,,,-99.99,,2013-03-01 23:41:00,
2013-03-01 16:52:00,50.0,26.0,-100.00,WNW,290,4.0,7.0,38,0.00,,,-99.99,,2013-03-01 23:52:00,
2013-03-01 17:01:00,49.0,25.0,-100.00,NW,305,4.0,7.0,38,0.00,,,-99.99,,2013-03-02 00:01:00,
2013-03-01 17:11:00,49.0,25.0,-100.00,NW,310,2.0,6.0,39,0.00,,,-99.99,,2013-03-02 00:11:00,
2013-03-01 17:21:00,48.0,25.0,-100.00,WNW,290,3.0,4.0,40,0.00,,,-99.99,,2013-03-02 00:21:00,
2013-03-01 17:31:00,48.0,25.0,-100.00,NNW,335,1.0,4.0,40,0.00,,,-99.99,,2013-03-02 00:31:00,
2013-03-01 17:41:00,48.0,25.0,-100.00,NW,310,2.0,3.0,40,0.00,,,-99.99,,2013-03-02 00:41:00,
2013-03-01 17:52:00,48.0,25.0,-100.00,NW,315,2.0,4.0,40,0.00,,,-99.99,,2013-03-02 00:52:00,
2013-03-01 18:01:00,47.0,25.0,-100.00,NNW,330,3.0,4.0,40,0.00,,,-99.99,,2013-03-02 01:01:00,
2013-03-01 18:11:00,47.0,25.0,-100.00,NNW,330,3.0,4.0,41,0.00,,,-99.99,,2013-03-02 01:11:00,
2013-03-01 18:21:00,46.0,24.0,-100.00,NNW,335,3.0,5.0,42,0.00,,,-99.99,,2013-03-02 01:21:00,
2013-03-01 18:31:00,45.0,24.0,-100.00,North,0,2.0,4.0,42,0.00,,,-99.99,,2013-03-02 01:31:00,
2013-03-01 18:41:00,45.0,24.0,-100.00,NNW,335,6.0,7.0,44,0.00,,,-99.99,,2013-03-02 01:41:00,
2013-03-01 18:51:00,44.0,25.0,-100.00,NW,325,6.0,7.0,45,0.00,,,-99.99,,2013-03-02 01:51:00,
2013-03-01 19:01:00,44.0,24.0,-100.00,NNW,340,5.0,7.0,46,0.00,,,-99.99,,2013-03-02 02:01:00,
2013-03-01 19:11:00,44.0,25.0,-100.00,NW,325,7.0,9.0,46,0.00,,,-99.99,,2013-03-02 02:11:00,
2013-03-01 19:21:00,43.0,24.0,-100.00,NNW,340,6.0,9.0,47,0.00,,,-99.99,,2013-03-02 02:21:00,
2013-03-01 19:31:00,43.0,24.0,-100.00,NNW,335,6.0,8.0,47,0.00,,,-99.99,,2013-03-02 02:31:00,
2013-03-01 19:41:00,42.0,24.0,-100.00,NNW,345,4.0,8.0,48,0.00,,,-99.99,,2013-03-02 02:41:00,
2013-03-01 19:52:00,42.0,24.0,-100.00,NNW,345,6.0,9.0,49,0.00,,,-99.99,,2013-03-02 02:52:00,
2013-03-01 20:01:00,42.0,24.0,-100.00,NNW,335,9.0,10.0,49,0.00,,,-99.99,,2013-03-02 03:01:00,
2013-03-01 20:11:00,41.0,24.0,-100.00,NNW,335,7.0,10.0,50,0.00,,,-99.99,,2013-03-02 03:11:00,
2013-03-01 20:21:00,41.0,24.0,-100.00,North,350,6.0,9.0,51,0.00,,,-99.99,,2013-03-02 03:21:00,
2013-03-01 20:32:00,40.0,24.0,-100.00,NNW,345,4.0,7.0,52,0.00,,,-99.99,,2013-03-02 03:32:00,
2013-03-01 20:41:00,39.0,24.0,-100.00,NNW,345,5.0,7.0,54,0.00,,,-99.99,,2013-03-02 03:41:00,
2013-03-01 20:52:00,39.0,25.0,-100.00,NNW,330,6.0,7.0,55,0.00,,,-99.99,,2013-03-02 03:52:00,
2013-03-01 21:01:00,39.0,25.0,-100.00,NNW,340,6.0,7.0,56,0.00,,,-99.99,,2013-03-02 04:01:00,
2013-03-01 21:11:00,39.0,25.0,-100.00,NNW,330,6.0,8.0,56,0.00,,,-99.99,,2013-03-02 04:11:00,
2013-03-01 21:21:00,39.0,25.0,-100.00,NNW,330,6.0,7.0,57,0.00,,,-99.99,,2013-03-02 04:21:00,
2013-03-01 21:31:00,39.0,26.0,-100.00,NW,325,7.0,9.0,58,0.00,,,-99.99,,2013-03-02 04:31:00,
2013-03-01 21:41:00,39.0,26.0,-100.00,NNW,330,6.0,10.0,58,0.00,,,-99.99,,2013-03-02 04:41:00,
2013-03-01 21:51:00,38.0,26.0,-100.00,NW,315,6.0,7.0,59,0.00,,,-99.99,,2013-03-02 04:51:00,
2013-03-01 22:01:00,38.0,26.0,-100.00,NNW,330,7.0,8.0,60,0.00,,,-99.99,,2013-03-02 05:01:00,
2013-03-01 22:12:00,37.0,26.0,-100.00,NNW,340,6.0,8.0,61,0.00,,,-99.99,,2013-03-02 05:12:00,
2013-03-01 22:22:00,37.0,26.0,-100.00,NW,325,4.0,7.0,62,0.00,,,-99.99,,2013-03-02 05:22:00,
2013-03-01 22:31:00,37.0,26.0,-100.00,NNW,330,7.0,8.0,62,0.00,,,-99.99,,2013-03-02 05:31:00,
2013-03-01 22:41:00,37.0,26.0,-100.00,NW,320,6.0,9.0,63,0.00,,,-99.99,,2013-03-02 05:41:00,
2013-03-01 22:51:00,36.0,25.0,-100.00,NNW,335,5.0,9.0,64,0.00,,,-99.99,,2013-03-02 05:51:00,
2013-03-01 23:01:00,36.0,25.0,-100.00,NNW,340,6.0,7.0,64,0.00,,,-99.99,,2013-03-02 06:01:00,
2013-03-01 23:11:00,36.0,25.0,-100.00,NNW,330,7.0,9.0,65,0.00,,,-99.99,,2013-03-02 06:11:00,
2013-03-01 23:21:00,35.0,25.0,-100.00,NNW,340,7.0,10.0,65,0.00,,,-99.99,,2013-03-02 06:21:00,
2013-03-01 23:31:00,35.0,25.0,-100.00,NNW,335,7.0,8.0,66,0.00,,,-99.99,,2013-03-02 06:31:00,
2013-03-01 23:41:00,35.0,25.0,-100.00,NNW,335,6.0,9.0,67,0.00,,,-99.99,,2013-03-02 06:41:00,
2013-03-01 23:51:00,35.0,25.0,-100.00,NNW,345,6.0,7.0,68,0.00,,,-99.99,,2013-03-02 06:51:00,